Year,Month,Day,Hour,Minute,Value (Times are PST for temperature in C)
2007,08,15,00,00,16.60
2007,08,15,00,01,16.60
2007,08,15,00,02,16.50
2007,08,15,00,03,16.40
2007,08,15,00,04,16.40
2007,08,15,00,05,16.40
2007,08,15,00,06,16.40
2007,08,15,00,07,16.40
2007,08,15,00,08,16.40
2007,08,15,00,09,16.40
2007,08,15,00,10,16.50
2007,08,15,00,11,16.60
2007,08,15,00,12,16.60
2007,08,15,00,13,16.60
2007,08,15,00,14,16.50
2007,08,15,00,15,16.40
2007,08,15,00,16,16.40
2007,08,15,00,17,16.40
2007,08,15,00,18,16.40
2007,08,15,00,19,16.40
2007,08,15,00,20,16.40
2007,08,15,00,21,16.40
2007,08,15,00,22,16.40
2007,08,15,00,23,16.40
2007,08,15,00,24,16.40
2007,08,15,00,25,16.40
2007,08,15,00,26,16.40
2007,08,15,00,27,16.40
2007,08,15,00,28,16.40
2007,08,15,00,29,16.40
2007,08,15,00,30,16.40
2007,08,15,00,31,16.40
2007,08,15,00,32,16.40
2007,08,15,00,33,16.40
2007,08,15,00,34,16.30
2007,08,15,00,35,16.30
2007,08,15,00,36,16.30
2007,08,15,00,37,16.30
2007,08,15,00,38,16.20
2007,08,15,00,39,16.20
2007,08,15,00,40,16.20
2007,08,15,00,41,16.20
2007,08,15,00,42,16.20
2007,08,15,00,43,16.10
2007,08,15,00,44,16.10
2007,08,15,00,45,16.10
2007,08,15,00,46,16.10
2007,08,15,00,47,16.10
2007,08,15,00,48,16.10
2007,08,15,00,49,16.20
2007,08,15,00,50,16.10
2007,08,15,00,51,16.10
2007,08,15,00,52,16.10
2007,08,15,00,53,16.10
2007,08,15,00,54,16.10
2007,08,15,00,55,16.10
2007,08,15,00,56,16.10
2007,08,15,00,57,16.10
2007,08,15,00,58,16.00
2007,08,15,00,59,15.90
2007,08,15,01,00,15.90
2007,08,15,01,01,15.90
2007,08,15,01,02,15.80
2007,08,15,01,03,15.80
2007,08,15,01,04,15.80
2007,08,15,01,05,15.80
2007,08,15,01,06,15.80
2007,08,15,01,07,15.70
2007,08,15,01,08,15.70
2007,08,15,01,09,15.70
2007,08,15,01,10,15.70
2007,08,15,01,11,15.70
2007,08,15,01,12,15.70
2007,08,15,01,13,15.70
2007,08,15,01,14,15.70
2007,08,15,01,15,15.60
2007,08,15,01,16,15.60
2007,08,15,01,17,15.60
2007,08,15,01,18,15.60
2007,08,15,01,19,15.50
2007,08,15,01,20,15.50
2007,08,15,01,21,15.50
2007,08,15,01,22,15.50
2007,08,15,01,23,15.50
2007,08,15,01,24,15.40
2007,08,15,01,25,15.40
2007,08,15,01,26,15.40
2007,08,15,01,27,15.40
2007,08,15,01,28,15.40
2007,08,15,01,29,15.40
2007,08,15,01,30,15.30
2007,08,15,01,31,15.30
2007,08,15,01,32,15.30
2007,08,15,01,33,15.30
2007,08,15,01,34,15.30
2007,08,15,01,35,15.30
2007,08,15,01,36,15.30
2007,08,15,01,37,15.30
2007,08,15,01,38,15.30
2007,08,15,01,39,15.30
2007,08,15,01,40,15.30
2007,08,15,01,41,15.30
2007,08,15,01,42,15.30
2007,08,15,01,43,15.30
2007,08,15,01,44,15.30
2007,08,15,01,45,15.30
2007,08,15,01,46,15.30
2007,08,15,01,47,15.30
2007,08,15,01,48,15.30
2007,08,15,01,49,15.30
2007,08,15,01,50,15.30
2007,08,15,01,51,15.30
2007,08,15,01,52,15.30
2007,08,15,01,53,15.30
2007,08,15,01,54,15.30
2007,08,15,01,55,15.30
2007,08,15,01,56,15.30
2007,08,15,01,57,15.30
2007,08,15,01,58,15.30
2007,08,15,01,59,15.30
2007,08,15,02,00,15.30
2007,08,15,02,01,15.30
2007,08,15,02,02,15.30
2007,08,15,02,03,15.30
2007,08,15,02,04,15.30
2007,08,15,02,05,15.30
2007,08,15,02,06,15.30
2007,08,15,02,07,15.30
2007,08,15,02,08,15.30
2007,08,15,02,09,15.30
2007,08,15,02,10,15.30
2007,08,15,02,11,15.30
2007,08,15,02,12,15.30
2007,08,15,02,13,15.30
2007,08,15,02,14,15.30
2007,08,15,02,15,15.30
2007,08,15,02,16,15.30
2007,08,15,02,17,15.30
2007,08,15,02,18,15.30
2007,08,15,02,19,15.30
2007,08,15,02,20,15.30
2007,08,15,02,21,15.30
2007,08,15,02,22,15.30
2007,08,15,02,23,15.30
2007,08,15,02,24,15.30
2007,08,15,02,25,15.20
2007,08,15,02,26,15.20
2007,08,15,02,27,15.20
2007,08,15,02,28,15.20
2007,08,15,02,29,15.20
2007,08,15,02,30,15.10
2007,08,15,02,31,15.10
2007,08,15,02,32,15.10
2007,08,15,02,33,15.10
2007,08,15,02,34,15.10
2007,08,15,02,35,15.10
2007,08,15,02,36,15.10
2007,08,15,02,37,15.00
2007,08,15,02,38,15.00
2007,08,15,02,39,15.00
2007,08,15,02,40,15.00
2007,08,15,02,41,15.00
2007,08,15,02,42,14.90
2007,08,15,02,43,14.90
2007,08,15,02,44,14.90
2007,08,15,02,45,14.90
2007,08,15,02,46,14.90
2007,08,15,02,47,14.80
2007,08,15,02,48,14.80
2007,08,15,02,49,14.80
2007,08,15,02,50,14.80
2007,08,15,02,51,14.80
2007,08,15,02,52,14.80
2007,08,15,02,53,14.80
2007,08,15,02,54,14.80
2007,08,15,02,55,14.80
2007,08,15,02,56,14.80
2007,08,15,02,57,14.80
2007,08,15,02,58,14.80
2007,08,15,02,59,14.80
2007,08,15,03,00,14.80
2007,08,15,03,01,14.80
2007,08,15,03,02,14.80
2007,08,15,03,03,14.80
2007,08,15,03,04,14.80
2007,08,15,03,05,14.80
2007,08,15,03,06,14.80
2007,08,15,03,07,14.80
2007,08,15,03,08,14.80
2007,08,15,03,09,14.70
2007,08,15,03,10,14.70
2007,08,15,03,11,14.70
2007,08,15,03,12,14.70
2007,08,15,03,13,14.60
2007,08,15,03,14,14.60
2007,08,15,03,15,14.60
2007,08,15,03,16,14.60
2007,08,15,03,17,14.50
2007,08,15,03,18,14.50
2007,08,15,03,19,14.50
2007,08,15,03,20,14.50
2007,08,15,03,21,14.50
2007,08,15,03,22,14.40
2007,08,15,03,23,14.40
2007,08,15,03,24,14.40
2007,08,15,03,25,14.30
2007,08,15,03,26,14.30
2007,08,15,03,27,14.30
2007,08,15,03,28,14.20
2007,08,15,03,29,14.20
2007,08,15,03,30,14.20
2007,08,15,03,31,14.20
2007,08,15,03,32,14.20
2007,08,15,03,33,14.20
2007,08,15,03,34,14.10
2007,08,15,03,35,14.10
2007,08,15,03,36,14.10
2007,08,15,03,37,14.00
2007,08,15,03,38,14.00
2007,08,15,03,39,14.00
2007,08,15,03,40,14.00
2007,08,15,03,41,14.00
2007,08,15,03,42,14.00
2007,08,15,03,43,13.90
2007,08,15,03,44,13.90
2007,08,15,03,45,13.90
2007,08,15,03,46,13.90
2007,08,15,03,47,13.80
2007,08,15,03,48,13.80
2007,08,15,03,49,13.80
2007,08,15,03,50,13.80
2007,08,15,03,51,13.70
2007,08,15,03,52,13.70
2007,08,15,03,53,13.70
2007,08,15,03,54,13.70
2007,08,15,03,55,13.70
2007,08,15,03,56,13.70
2007,08,15,03,57,13.70
2007,08,15,03,58,13.70
2007,08,15,03,59,13.70
2007,08,15,04,00,13.60
2007,08,15,04,01,13.60
2007,08,15,04,02,13.60
2007,08,15,04,03,13.60
2007,08,15,04,04,13.60
2007,08,15,04,05,13.50
2007,08,15,04,06,13.50
2007,08,15,04,07,13.50
2007,08,15,04,08,13.50
2007,08,15,04,09,13.50
2007,08,15,04,10,13.40
2007,08,15,04,11,13.40
2007,08,15,04,12,13.40
2007,08,15,04,13,13.40
2007,08,15,04,14,13.40
2007,08,15,04,15,13.30
2007,08,15,04,16,13.30
2007,08,15,04,17,13.30
2007,08,15,04,18,13.30
2007,08,15,04,19,13.30
2007,08,15,04,20,13.30
2007,08,15,04,21,13.30
2007,08,15,04,22,13.30
2007,08,15,04,23,13.30
2007,08,15,04,24,13.30
2007,08,15,04,25,13.30
2007,08,15,04,26,13.30
2007,08,15,04,27,13.30
2007,08,15,04,28,13.30
2007,08,15,04,29,13.30
2007,08,15,04,30,13.30
2007,08,15,04,31,13.30
2007,08,15,04,32,13.30
2007,08,15,04,33,13.20
2007,08,15,04,34,13.20
2007,08,15,04,35,13.20
2007,08,15,04,36,13.20
2007,08,15,04,37,13.20
2007,08,15,04,38,13.20
2007,08,15,04,39,13.20
2007,08,15,04,40,13.20
2007,08,15,04,41,13.20
2007,08,15,04,42,13.20
2007,08,15,04,43,13.30
2007,08,15,04,44,13.30
2007,08,15,04,45,13.30
2007,08,15,04,46,13.30
2007,08,15,04,47,13.30
2007,08,15,04,48,13.30
2007,08,15,04,49,13.30
2007,08,15,04,50,13.30
2007,08,15,04,51,13.30
2007,08,15,04,52,13.20
2007,08,15,04,53,13.20
2007,08,15,04,54,13.30
2007,08,15,04,55,13.30
2007,08,15,04,56,13.30
2007,08,15,04,57,13.30
2007,08,15,04,58,13.30
2007,08,15,04,59,13.30
2007,08,15,05,00,13.30
2007,08,15,05,01,13.30
2007,08,15,05,02,13.30
2007,08,15,05,03,13.30
2007,08,15,05,04,13.30
2007,08,15,05,05,13.30
2007,08,15,05,06,13.30
2007,08,15,05,07,13.30
2007,08,15,05,08,13.30
2007,08,15,05,09,13.30
2007,08,15,05,10,13.40
2007,08,15,05,11,13.40
2007,08,15,05,12,13.40
2007,08,15,05,13,13.50
2007,08,15,05,14,13.50
2007,08,15,05,15,13.50
2007,08,15,05,16,13.60
2007,08,15,05,17,13.60
2007,08,15,05,18,13.60
2007,08,15,05,19,13.60
2007,08,15,05,20,13.60
2007,08,15,05,21,13.70
2007,08,15,05,22,13.70
2007,08,15,05,23,13.70
2007,08,15,05,24,13.70
2007,08,15,05,25,13.70
2007,08,15,05,26,13.70
2007,08,15,05,27,13.70
2007,08,15,05,28,13.70
2007,08,15,05,29,13.70
2007,08,15,05,30,13.70
2007,08,15,05,31,13.70
2007,08,15,05,32,13.70
2007,08,15,05,33,13.70
2007,08,15,05,34,13.70
2007,08,15,05,35,13.70
2007,08,15,05,36,13.70
2007,08,15,05,37,13.70
2007,08,15,05,38,13.70
2007,08,15,05,39,13.60
2007,08,15,05,40,13.60
2007,08,15,05,41,13.60
2007,08,15,05,42,13.60
2007,08,15,05,43,13.50
2007,08,15,05,44,13.50
2007,08,15,05,45,13.50
2007,08,15,05,46,13.50
2007,08,15,05,47,13.50
2007,08,15,05,48,13.40
2007,08,15,05,49,13.40
2007,08,15,05,50,13.40
2007,08,15,05,51,13.40
2007,08,15,05,52,13.40
2007,08,15,05,53,13.30
2007,08,15,05,54,13.30
2007,08,15,05,55,13.30
2007,08,15,05,56,13.30
2007,08,15,05,57,13.30
2007,08,15,05,58,13.30
2007,08,15,05,59,13.30
2007,08,15,06,00,13.30
2007,08,15,06,01,13.30
2007,08,15,06,02,13.30
2007,08,15,06,03,13.30
2007,08,15,06,04,13.30
2007,08,15,06,05,13.30
2007,08,15,06,06,13.30
2007,08,15,06,07,13.30
2007,08,15,06,08,13.30
2007,08,15,06,09,13.20
2007,08,15,06,10,13.20
2007,08,15,06,11,13.20
2007,08,15,06,12,13.20
2007,08,15,06,13,13.20
2007,08,15,06,14,13.20
2007,08,15,06,15,13.20
2007,08,15,06,16,13.20
2007,08,15,06,17,13.20
2007,08,15,06,18,13.20
2007,08,15,06,19,13.20
2007,08,15,06,20,13.20
2007,08,15,06,21,13.20
2007,08,15,06,22,13.20
2007,08,15,06,23,13.20
2007,08,15,06,24,13.30
2007,08,15,06,25,13.30
2007,08,15,06,26,13.30
2007,08,15,06,27,13.30
2007,08,15,06,28,13.30
2007,08,15,06,29,13.40
2007,08,15,06,30,13.40
2007,08,15,06,31,13.50
2007,08,15,06,32,13.50
2007,08,15,06,33,13.50
2007,08,15,06,34,13.60
2007,08,15,06,35,13.60
2007,08,15,06,36,13.60
2007,08,15,06,37,13.70
2007,08,15,06,38,13.70
2007,08,15,06,39,13.70
2007,08,15,06,40,13.70
2007,08,15,06,41,13.70
2007,08,15,06,42,13.70
2007,08,15,06,43,13.70
2007,08,15,06,44,13.70
2007,08,15,06,45,13.70
2007,08,15,06,46,13.80
2007,08,15,06,47,13.80
2007,08,15,06,48,13.90
2007,08,15,06,49,13.90
2007,08,15,06,50,14.00
2007,08,15,06,51,14.10
2007,08,15,06,52,14.20
2007,08,15,06,53,14.20
2007,08,15,06,54,14.20
2007,08,15,06,55,14.30
2007,08,15,06,56,14.30
2007,08,15,06,57,14.40
2007,08,15,06,58,14.40
2007,08,15,06,59,14.40
2007,08,15,07,00,14.50
2007,08,15,07,01,14.50
2007,08,15,07,02,14.60
2007,08,15,07,03,14.80
2007,08,15,07,04,14.80
2007,08,15,07,05,14.90
2007,08,15,07,06,14.90
2007,08,15,07,07,15.00
2007,08,15,07,08,15.10
2007,08,15,07,09,15.10
2007,08,15,07,10,15.10
2007,08,15,07,11,15.30
2007,08,15,07,12,15.40
2007,08,15,07,13,15.50
2007,08,15,07,14,15.50
2007,08,15,07,15,15.60
2007,08,15,07,16,15.60
2007,08,15,07,17,15.60
2007,08,15,07,18,15.70
2007,08,15,07,19,15.70
2007,08,15,07,20,15.80
2007,08,15,07,21,15.80
2007,08,15,07,22,15.80
2007,08,15,07,23,15.80
2007,08,15,07,24,15.90
2007,08,15,07,25,16.00
2007,08,15,07,26,16.10
2007,08,15,07,27,16.10
2007,08,15,07,28,16.20
2007,08,15,07,29,16.20
2007,08,15,07,30,16.30
2007,08,15,07,31,16.40
2007,08,15,07,32,16.40
2007,08,15,07,33,16.40
2007,08,15,07,34,16.60
2007,08,15,07,35,16.60
2007,08,15,07,36,16.70
2007,08,15,07,37,16.70
2007,08,15,07,38,16.70
2007,08,15,07,39,16.80
2007,08,15,07,40,16.80
2007,08,15,07,41,16.90
2007,08,15,07,42,16.90
2007,08,15,07,43,17.00
2007,08,15,07,44,17.00
2007,08,15,07,45,17.10
2007,08,15,07,46,17.10
2007,08,15,07,47,17.20
2007,08,15,07,48,17.20
2007,08,15,07,49,17.30
2007,08,15,07,50,17.30
2007,08,15,07,51,17.40
2007,08,15,07,52,17.50
2007,08,15,07,53,17.60
2007,08,15,07,54,17.70
2007,08,15,07,55,17.80
2007,08,15,07,56,17.90
2007,08,15,07,57,18.00
2007,08,15,07,58,18.10
2007,08,15,07,59,18.20
2007,08,15,08,00,18.20
2007,08,15,08,01,18.30
2007,08,15,08,02,18.40
2007,08,15,08,03,18.40
2007,08,15,08,04,18.50
2007,08,15,08,05,18.50
2007,08,15,08,06,18.60
2007,08,15,08,07,18.60
2007,08,15,08,08,18.70
2007,08,15,08,09,18.70
2007,08,15,08,10,18.80
2007,08,15,08,11,18.90
2007,08,15,08,12,19.00
2007,08,15,08,13,19.10
2007,08,15,08,14,19.10
2007,08,15,08,15,19.30
2007,08,15,08,16,19.40
2007,08,15,08,17,19.40
2007,08,15,08,18,19.50
2007,08,15,08,19,19.60
2007,08,15,08,20,19.80
2007,08,15,08,21,19.90
2007,08,15,08,22,20.10
2007,08,15,08,23,20.20
2007,08,15,08,24,20.20
2007,08,15,08,25,20.30
2007,08,15,08,26,20.30
2007,08,15,08,27,20.30
2007,08,15,08,28,20.30
2007,08,15,08,29,20.40
2007,08,15,08,30,20.50
2007,08,15,08,31,20.50
2007,08,15,08,32,20.60
2007,08,15,08,33,20.80
2007,08,15,08,34,20.90
2007,08,15,08,35,20.90
2007,08,15,08,36,21.00
2007,08,15,08,37,21.10
2007,08,15,08,38,21.20
2007,08,15,08,39,21.20
2007,08,15,08,40,21.30
2007,08,15,08,41,21.40
2007,08,15,08,42,21.50
2007,08,15,08,43,21.60
2007,08,15,08,44,21.60
2007,08,15,08,45,21.40
2007,08,15,08,46,21.40
2007,08,15,08,47,21.30
2007,08,15,08,48,21.30
2007,08,15,08,49,21.30
2007,08,15,08,50,21.30
2007,08,15,08,51,21.30
2007,08,15,08,52,21.30
2007,08,15,08,53,21.40
2007,08,15,08,54,21.40
2007,08,15,08,55,21.40
2007,08,15,08,56,21.40
2007,08,15,08,57,21.40
2007,08,15,08,58,21.40
2007,08,15,08,59,21.40
2007,08,15,09,00,21.40
2007,08,15,09,01,21.40
2007,08,15,09,02,21.60
2007,08,15,09,03,21.60
2007,08,15,09,04,21.60
2007,08,15,09,05,21.70
2007,08,15,09,06,21.70
2007,08,15,09,07,21.70
2007,08,15,09,08,21.70
2007,08,15,09,09,21.70
2007,08,15,09,10,21.80
2007,08,15,09,11,21.90
2007,08,15,09,12,22.00
2007,08,15,09,13,22.00
2007,08,15,09,14,22.10
2007,08,15,09,15,22.10
2007,08,15,09,16,22.10
2007,08,15,09,17,22.10
2007,08,15,09,18,22.10
2007,08,15,09,19,22.10
2007,08,15,09,20,22.20
2007,08,15,09,21,22.20
2007,08,15,09,22,22.20
2007,08,15,09,23,22.20
2007,08,15,09,24,22.20
2007,08,15,09,25,22.20
2007,08,15,09,26,22.20
2007,08,15,09,27,22.20
2007,08,15,09,28,22.20
2007,08,15,09,29,22.20
2007,08,15,09,30,22.30
2007,08,15,09,31,22.30
2007,08,15,09,32,22.30
2007,08,15,09,33,22.30
2007,08,15,09,34,22.40
2007,08,15,09,35,22.40
2007,08,15,09,36,22.40
2007,08,15,09,37,22.40
2007,08,15,09,38,22.40
2007,08,15,09,39,22.40
2007,08,15,09,40,22.40
2007,08,15,09,41,22.30
2007,08,15,09,42,22.20
2007,08,15,09,43,22.20
2007,08,15,09,44,22.10
2007,08,15,09,45,22.10
2007,08,15,09,46,22.10
2007,08,15,09,47,22.00
2007,08,15,09,48,22.00
2007,08,15,09,49,22.00
2007,08,15,09,50,22.00
2007,08,15,09,51,22.00
2007,08,15,09,52,22.00
2007,08,15,09,53,22.10
2007,08,15,09,54,22.10
2007,08,15,09,55,22.00
2007,08,15,09,56,22.00
2007,08,15,09,57,22.00
2007,08,15,09,58,22.00
2007,08,15,09,59,22.00
2007,08,15,10,00,22.00
2007,08,15,10,01,22.00
2007,08,15,10,02,22.10
2007,08,15,10,03,22.10
2007,08,15,10,04,22.20
2007,08,15,10,05,22.20
2007,08,15,10,06,22.20
2007,08,15,10,07,22.20
2007,08,15,10,08,22.20
2007,08,15,10,09,22.20
2007,08,15,10,10,22.30
2007,08,15,10,11,22.40
2007,08,15,10,12,22.40
2007,08,15,10,13,22.40
2007,08,15,10,14,22.40
2007,08,15,10,15,22.40
2007,08,15,10,16,22.50
2007,08,15,10,17,22.60
2007,08,15,10,18,22.60
2007,08,15,10,19,22.70
2007,08,15,10,20,22.70
2007,08,15,10,21,22.80
2007,08,15,10,22,22.80
2007,08,15,10,23,22.70
2007,08,15,10,24,22.70
2007,08,15,10,25,22.60
2007,08,15,10,26,22.60
2007,08,15,10,27,22.50
2007,08,15,10,28,22.50
2007,08,15,10,29,22.50
2007,08,15,10,30,22.50
2007,08,15,10,31,22.40
2007,08,15,10,32,22.40
2007,08,15,10,33,22.30
2007,08,15,10,34,22.30
2007,08,15,10,35,22.20
2007,08,15,10,36,22.20
2007,08,15,10,37,22.20
2007,08,15,10,38,22.20
2007,08,15,10,39,22.10
2007,08,15,10,40,22.10
2007,08,15,10,41,22.20
2007,08,15,10,42,22.30
2007,08,15,10,43,22.30
2007,08,15,10,44,22.40
2007,08,15,10,45,22.40
2007,08,15,10,46,22.50
2007,08,15,10,47,22.50
2007,08,15,10,48,22.60
2007,08,15,10,49,22.60
2007,08,15,10,50,22.60
2007,08,15,10,51,22.60
2007,08,15,10,52,22.50
2007,08,15,10,53,22.60
2007,08,15,10,54,22.60
2007,08,15,10,55,22.50
2007,08,15,10,56,22.50
2007,08,15,10,57,22.50
2007,08,15,10,58,22.60
2007,08,15,10,59,22.60
2007,08,15,11,00,22.70
2007,08,15,11,01,22.70
2007,08,15,11,02,22.80
2007,08,15,11,03,22.80
2007,08,15,11,04,22.80
2007,08,15,11,05,22.70
2007,08,15,11,06,22.70
2007,08,15,11,07,22.70
2007,08,15,11,08,22.70
2007,08,15,11,09,22.70
2007,08,15,11,10,22.70
2007,08,15,11,11,22.70
2007,08,15,11,12,22.70
2007,08,15,11,13,22.70
2007,08,15,11,14,22.80
2007,08,15,11,15,22.80
2007,08,15,11,16,22.90
2007,08,15,11,17,23.00
2007,08,15,11,18,23.10
2007,08,15,11,19,23.20
2007,08,15,11,20,23.20
2007,08,15,11,21,23.10
2007,08,15,11,22,22.90
2007,08,15,11,23,22.90
2007,08,15,11,24,22.90
2007,08,15,11,25,22.90
2007,08,15,11,26,22.90
2007,08,15,11,27,23.10
2007,08,15,11,28,23.20
2007,08,15,11,29,23.20
2007,08,15,11,30,23.20
2007,08,15,11,31,23.30
2007,08,15,11,32,23.30
2007,08,15,11,33,23.30
2007,08,15,11,34,23.40
2007,08,15,11,35,23.50
2007,08,15,11,36,23.70
2007,08,15,11,37,23.70
2007,08,15,11,38,23.70
2007,08,15,11,39,23.70
2007,08,15,11,40,23.70
2007,08,15,11,41,23.80
2007,08,15,11,42,23.80
2007,08,15,11,43,23.80
2007,08,15,11,44,23.80
2007,08,15,11,45,23.80
2007,08,15,11,46,23.80
2007,08,15,11,47,23.80
2007,08,15,11,48,23.80
2007,08,15,11,49,23.80
2007,08,15,11,50,23.90
2007,08,15,11,51,23.90
2007,08,15,11,52,24.00
2007,08,15,11,53,24.10
2007,08,15,11,54,24.10
2007,08,15,11,55,24.10
2007,08,15,11,56,24.10
2007,08,15,11,57,24.10
2007,08,15,11,58,24.10
2007,08,15,11,59,24.10
2007,08,15,12,00,24.00
2007,08,15,12,01,24.00
2007,08,15,12,02,24.10
2007,08,15,12,03,24.10
2007,08,15,12,04,24.10
2007,08,15,12,05,24.20
2007,08,15,12,06,24.20
2007,08,15,12,07,24.20
2007,08,15,12,08,24.30
2007,08,15,12,09,24.30
2007,08,15,12,10,24.30
2007,08,15,12,11,24.40
2007,08,15,12,12,24.50
2007,08,15,12,13,24.50
2007,08,15,12,14,24.40
2007,08,15,12,15,24.40
2007,08,15,12,16,24.50
2007,08,15,12,17,24.50
2007,08,15,12,18,24.60
2007,08,15,12,19,24.60
2007,08,15,12,20,24.70
2007,08,15,12,21,24.70
2007,08,15,12,22,24.70
2007,08,15,12,23,24.60
2007,08,15,12,24,24.60
2007,08,15,12,25,24.60
2007,08,15,12,26,24.70
2007,08,15,12,27,24.70
2007,08,15,12,28,24.70
2007,08,15,12,29,24.80
2007,08,15,12,30,24.90
2007,08,15,12,31,24.90
2007,08,15,12,32,25.00
2007,08,15,12,33,25.10
2007,08,15,12,34,25.20
2007,08,15,12,35,25.40
2007,08,15,12,36,25.40
2007,08,15,12,37,25.40
2007,08,15,12,38,25.30
2007,08,15,12,39,25.40
2007,08,15,12,40,25.40
2007,08,15,12,41,25.50
2007,08,15,12,42,25.50
2007,08,15,12,43,25.50
2007,08,15,12,44,25.50
2007,08,15,12,45,25.50
2007,08,15,12,46,25.60
2007,08,15,12,47,25.60
2007,08,15,12,48,25.60
2007,08,15,12,49,25.70
2007,08,15,12,50,25.70
2007,08,15,12,51,25.70
2007,08,15,12,52,25.60
2007,08,15,12,53,25.60
2007,08,15,12,54,25.60
2007,08,15,12,55,25.60
2007,08,15,12,56,25.70
2007,08,15,12,57,25.70
2007,08,15,12,58,25.70
2007,08,15,12,59,25.70
2007,08,15,13,00,25.70
2007,08,15,13,01,25.80
2007,08,15,13,02,25.80
2007,08,15,13,03,25.70
2007,08,15,13,04,25.70
2007,08,15,13,05,25.60
2007,08,15,13,06,25.60
2007,08,15,13,07,25.60
2007,08,15,13,08,25.50
2007,08,15,13,09,25.50
2007,08,15,13,10,25.50
2007,08,15,13,11,25.60
2007,08,15,13,12,25.60
2007,08,15,13,13,25.60
2007,08,15,13,14,25.60
2007,08,15,13,15,25.60
2007,08,15,13,16,25.60
2007,08,15,13,17,25.60
2007,08,15,13,18,25.70
2007,08,15,13,19,25.70
2007,08,15,13,20,25.70
2007,08,15,13,21,25.80
2007,08,15,13,22,25.80
2007,08,15,13,23,25.90
2007,08,15,13,24,26.00
2007,08,15,13,25,26.00
2007,08,15,13,26,26.00
2007,08,15,13,27,26.00
2007,08,15,13,28,26.00
2007,08,15,13,29,26.00
2007,08,15,13,30,26.00
2007,08,15,13,31,26.00
2007,08,15,13,32,25.90
2007,08,15,13,33,25.90
2007,08,15,13,34,25.90
2007,08,15,13,35,25.80
2007,08,15,13,36,25.80
2007,08,15,13,37,25.80
2007,08,15,13,38,25.80
2007,08,15,13,39,25.80
2007,08,15,13,40,25.60
2007,08,15,13,41,25.30
2007,08,15,13,42,25.10
2007,08,15,13,43,24.90
2007,08,15,13,44,24.90
2007,08,15,13,45,24.80
2007,08,15,13,46,24.70
2007,08,15,13,47,24.60
2007,08,15,13,48,24.50
2007,08,15,13,49,24.50
2007,08,15,13,50,24.40
2007,08,15,13,51,24.20
2007,08,15,13,52,24.00
2007,08,15,13,53,23.80
2007,08,15,13,54,23.70
2007,08,15,13,55,23.80
2007,08,15,13,56,23.80
2007,08,15,13,57,23.80
2007,08,15,13,58,23.70
2007,08,15,13,59,23.60
2007,08,15,14,00,23.50
2007,08,15,14,01,23.40
2007,08,15,14,02,23.40
2007,08,15,14,03,23.40
2007,08,15,14,04,23.40
2007,08,15,14,05,23.40
2007,08,15,14,06,23.40
2007,08,15,14,07,23.40
2007,08,15,14,08,23.40
2007,08,15,14,09,23.30
2007,08,15,14,10,23.30
2007,08,15,14,11,23.30
2007,08,15,14,12,23.10
2007,08,15,14,13,23.00
2007,08,15,14,14,22.90
2007,08,15,14,15,22.90
2007,08,15,14,16,22.90
2007,08,15,14,17,23.10
2007,08,15,14,18,23.20
2007,08,15,14,19,23.20
2007,08,15,14,20,23.30
2007,08,15,14,21,23.40
2007,08,15,14,22,23.40
2007,08,15,14,23,23.60
2007,08,15,14,24,23.60
2007,08,15,14,25,23.70
2007,08,15,14,26,23.60
2007,08,15,14,27,23.60
2007,08,15,14,28,23.40
2007,08,15,14,29,23.30
2007,08,15,14,30,23.30
2007,08,15,14,31,23.20
2007,08,15,14,32,23.10
2007,08,15,14,33,23.10
2007,08,15,14,34,22.90
2007,08,15,14,35,23.00
2007,08,15,14,36,23.10
2007,08,15,14,37,23.10
2007,08,15,14,38,23.10
2007,08,15,14,39,23.20
2007,08,15,14,40,23.20
2007,08,15,14,41,23.30
2007,08,15,14,42,23.20
2007,08,15,14,43,23.20
2007,08,15,14,44,23.10
2007,08,15,14,45,23.10
2007,08,15,14,46,23.00
2007,08,15,14,47,22.90
2007,08,15,14,48,22.90
2007,08,15,14,49,22.90
2007,08,15,14,50,22.90
2007,08,15,14,51,22.80
2007,08,15,14,52,22.80
2007,08,15,14,53,22.80
2007,08,15,14,54,22.80
2007,08,15,14,55,22.70
2007,08,15,14,56,22.70
2007,08,15,14,57,22.80
2007,08,15,14,58,22.80
2007,08,15,14,59,22.90
2007,08,15,15,00,22.90
2007,08,15,15,01,22.90
2007,08,15,15,02,22.90
2007,08,15,15,03,22.90
2007,08,15,15,04,22.80
2007,08,15,15,05,22.80
2007,08,15,15,06,22.70
2007,08,15,15,07,22.70
2007,08,15,15,08,22.80
2007,08,15,15,09,22.80
2007,08,15,15,10,22.70
2007,08,15,15,11,22.70
2007,08,15,15,12,22.70
2007,08,15,15,13,22.70
2007,08,15,15,14,22.80
2007,08,15,15,15,22.70
2007,08,15,15,16,22.60
2007,08,15,15,17,22.60
2007,08,15,15,18,22.60
2007,08,15,15,19,22.60
2007,08,15,15,20,22.60
2007,08,15,15,21,22.70
2007,08,15,15,22,22.70
2007,08,15,15,23,22.70
2007,08,15,15,24,22.70
2007,08,15,15,25,22.80
2007,08,15,15,26,22.80
2007,08,15,15,27,22.80
2007,08,15,15,28,22.80
2007,08,15,15,29,22.80
2007,08,15,15,30,22.80
2007,08,15,15,31,22.90
2007,08,15,15,32,22.90
2007,08,15,15,33,22.90
2007,08,15,15,34,22.90
2007,08,15,15,35,22.90
2007,08,15,15,36,22.90
2007,08,15,15,37,22.80
2007,08,15,15,38,22.80
2007,08,15,15,39,22.90
2007,08,15,15,40,22.90
2007,08,15,15,41,23.00
2007,08,15,15,42,23.10
2007,08,15,15,43,23.10
2007,08,15,15,44,23.10
2007,08,15,15,45,23.00
2007,08,15,15,46,22.90
2007,08,15,15,47,22.90
2007,08,15,15,48,22.90
2007,08,15,15,49,22.90
2007,08,15,15,50,22.90
2007,08,15,15,51,22.90
2007,08,15,15,52,23.10
2007,08,15,15,53,23.10
2007,08,15,15,54,23.20
2007,08,15,15,55,23.30
2007,08,15,15,56,23.30
2007,08,15,15,57,23.30
2007,08,15,15,58,23.30
2007,08,15,15,59,23.30
2007,08,15,16,00,23.30
2007,08,15,16,01,23.30
2007,08,15,16,02,23.30
2007,08,15,16,03,23.40
2007,08,15,16,04,23.60
2007,08,15,16,05,23.70
2007,08,15,16,06,23.70
2007,08,15,16,07,23.70
2007,08,15,16,08,23.60
2007,08,15,16,09,23.60
2007,08,15,16,10,23.60
2007,08,15,16,11,23.60
2007,08,15,16,12,23.70
2007,08,15,16,13,23.70
2007,08,15,16,14,23.70
2007,08,15,16,15,23.60
2007,08,15,16,16,23.60
2007,08,15,16,17,23.60
2007,08,15,16,18,23.70
2007,08,15,16,19,23.70
2007,08,15,16,20,23.70
2007,08,15,16,21,23.80
2007,08,15,16,22,23.90
2007,08,15,16,23,23.90
2007,08,15,16,24,23.90
2007,08,15,16,25,23.90
2007,08,15,16,26,23.80
2007,08,15,16,27,23.70
2007,08,15,16,28,23.70
2007,08,15,16,29,23.70
2007,08,15,16,30,23.70
2007,08,15,16,31,23.70
2007,08,15,16,32,23.70
2007,08,15,16,33,23.70
2007,08,15,16,34,23.70
2007,08,15,16,35,23.70
2007,08,15,16,36,23.90
2007,08,15,16,37,24.00
2007,08,15,16,38,24.20
2007,08,15,16,39,24.30
2007,08,15,16,40,24.40
2007,08,15,16,41,24.40
2007,08,15,16,42,24.40
2007,08,15,16,43,24.40
2007,08,15,16,44,24.50
2007,08,15,16,45,24.50
2007,08,15,16,46,24.50
2007,08,15,16,47,24.60
2007,08,15,16,48,24.70
2007,08,15,16,49,24.80
2007,08,15,16,50,24.90
2007,08,15,16,51,25.00
2007,08,15,16,52,25.10
2007,08,15,16,53,25.10
2007,08,15,16,54,25.20
2007,08,15,16,55,25.20
2007,08,15,16,56,25.30
2007,08,15,16,57,25.40
2007,08,15,16,58,25.50
2007,08,15,16,59,25.60
2007,08,15,17,00,25.80
2007,08,15,17,01,25.90
2007,08,15,17,02,26.00
2007,08,15,17,03,26.10
2007,08,15,17,04,26.10
2007,08,15,17,05,26.00
2007,08,15,17,06,25.90
2007,08,15,17,07,25.90
2007,08,15,17,08,25.90
2007,08,15,17,09,25.90
2007,08,15,17,10,26.00
2007,08,15,17,11,25.90
2007,08,15,17,12,25.90
2007,08,15,17,13,25.80
2007,08,15,17,14,25.80
2007,08,15,17,15,25.80
2007,08,15,17,16,25.80
2007,08,15,17,17,25.80
2007,08,15,17,18,25.80
2007,08,15,17,19,25.80